Date,TemperatureHighF,TemperatureAvgF,TemperatureLowF,DewpointHighF,DewpointAvgF,DewpointLowF,HumidityHigh,HumidityAvg,HumidityLow,PressureMaxIn,PressureMinIn,WindSpeedMaxMPH,WindSpeedAvgMPH,GustSpeedMaxMPH,PrecipitationSumIn
2013-9-3,80.0,76.4,71.3,53.1,48.4,43.8,48,38,32,29.87,29.82,6,0,0,0.00
2013-9-7,76.5,66.3,53.4,55.5,52.0,45.0,88,62,42,29.84,29.75,11,0,0,0.00
2013-9-8,68.3,58.9,51.3,55.5,48.8,39.3,88,70,43,29.86,29.66,9,0,0,0.00
2013-9-9,64.4,53.5,42.9,48.8,42.3,36.6,90,68,39,29.97,29.72,15,1,15,0.00
2013-9-10,73.5,55.3,41.2,47.1,40.6,34.8,81,60,36,30.04,29.94,9,1,0,0.00
2013-9-11,73.0,58.3,45.7,47.7,41.7,37.7,80,57,33,30.15,30.02,9,0,0,0.00
2013-9-12,71.5,56.7,45.2,48.1,43.0,38.7,84,62,39,30.15,29.92,12,1,12,0.00
2013-9-13,67.8,55.4,44.5,50.7,45.6,39.6,92,71,37,29.92,29.71,4,0,0,0.07
2013-9-14,53.4,51.7,49.7,50.7,48.9,46.2,95,90,83,30.01,29.74,9,0,0,1.49
2013-9-15,66.5,55.3,49.8,55.6,49.4,46.1,94,82,56,30.05,29.87,19,1,19,0.76
2013-9-16,77.6,59.8,44.5,56.2,47.0,40.4,90,65,29,29.87,29.66,9,0,0,0.00
2013-9-17,70.8,57.3,47.7,51.9,44.0,34.3,86,64,32,29.70,29.46,20,2,20,0.17
2013-9-18,59.0,50.6,37.7,43.4,35.2,28.7,85,57,37,29.87,29.48,16,2,16,0.01
2013-9-19,53.9,41.8,33.5,39.4,32.5,27.6,84,70,51,30.14,29.87,10,0,0,0.00
2013-9-20,68.0,47.5,31.9,40.8,30.6,22.0,81,55,27,30.13,29.80,9,0,0,0.00
2013-9-21,75.2,55.6,38.0,42.1,34.3,26.9,76,49,21,29.81,29.50,14,1,14,0.00
2013-9-22,67.0,55.0,47.2,43.3,37.8,32.3,77,54,30,29.50,29.36,10,0,0,0.00
2013-9-23,62.1,50.7,35.7,38.5,31.5,25.4,87,51,28,29.84,29.49,14,2,14,0.00
2013-9-24,63.9,51.1,38.0,38.8,32.4,27.6,75,50,31,29.85,29.56,17,2,17,0.00
2013-9-25,53.1,41.5,36.0,37.9,34.3,30.1,92,77,42,29.65,29.47,11,0,0,0.13
2013-9-26,39.0,32.9,25.7,33.3,28.8,22.6,92,85,67,30.02,29.61,13,2,13,0.01
2013-9-27,39.5,32.6,28.7,33.6,28.4,23.9,91,85,71,30.02,29.96,8,0,0,0.18
2013-9-28,56.4,45.1,29.9,33.5,28.8,24.5,83,54,37,29.98,29.81,15,2,16,0.00
2013-9-29,58.9,51.5,40.1,34.9,32.4,29.1,75,49,38,29.82,29.51,29,4,29,0.00
2013-9-30,52.9,44.5,33.7,47.0,38.5,26.3,92,80,52,29.78,29.44,18,2,18,0.64